Regional Weather Roundup
Issued by NWS

Home | Current Version | Previous Version | Text Only | Print | Product List | Glossary Off
Versions: 1 2 3 4 5 6 7 8 9 10 11 12 13 14 15 16 17 18 19 20 21 22 23 24 25 26 27 28 29 30 31 32 33 34 35 36 37 38 39 40 41 42 43 44 45 46 47 48 49 50

000
ASUS43 KTOP 060608
RWRKS

WEATHER ROUNDUP FOR KANSAS
NATIONAL WEATHER SERVICE GOODLAND KS
1200 AM CST SAT FEB 06 2016

NOTE:  "FAIR" INDICATES FEW OR NO CLOUDS BELOW 12,000 FEET WITH NO
SIGNIFICANT WEATHER AND/OR OBSTRUCTIONS TO VISIBILITY.

KSZ001>006-013>018-027>032-041>047-060700-
NORTHWEST KANSAS

CITY           SKY/WX    TMP DP  RH WIND       PRES   REMARKS
GOODLAND       CLEAR     19  10  68 W15       30.29R WCI   5
6HR MIN TEMP:  18; 6HR MAX TEMP:  30;

HAYS           CLEAR     28  16  59 NW9       30.30R
HILL CITY      CLEAR     25  19  78 NW9       30.31R
6HR MIN TEMP:  25; 6HR MAX TEMP:  36;

RUSSELL        PTCLDY    27  23  85 NW10      30.28S WCI  17
6HR MIN TEMP:  27; 6HR MAX TEMP:  34;

$$

KSZ061>065-074>080-084>089-060700-
SOUTHWEST KANSAS

CITY           SKY/WX    TMP DP  RH WIND       PRES   REMARKS
DODGE CITY     CLEAR     26  20  77 NW10      30.29F WCI  16
6HR MIN TEMP:  26; 6HR MAX TEMP:  36;

ELKHART          N/A     26  14  60 W9          N/A
GARDEN CITY    CLEAR     25  19  78 NW10      30.30S WCI  15
6HR MIN TEMP:  25; 6HR MAX TEMP:  35;

GREAT BEND     MOCLDY    28  19  69 NW7       30.30R
LIBERAL        CLEAR     25  14  63 NW9       30.32S
PRATT          PTCLDY    27  23  85 NW9       30.29S
6HR MIN TEMP:  27; 6HR MAX TEMP:  36;

$$

KSZ066>073-081>083-090>101-060700-
SOUTHEAST KANSAS

CITY           SKY/WX    TMP DP  RH WIND       PRES   REMARKS
CHANUTE        PTCLDY    38  25  59 S10       30.26S WCI  31
6HR MIN TEMP:  35; 6HR MAX TEMP:  46;

COFFEYVILLE    MOCLDY    39  24  55 CALM      30.29S
6HR MIN TEMP:  38; 6HR MAX TEMP:  49;

HUTCHINSON     CLOUDY    32  25  75 W7        30.28S
6HR MIN TEMP:  29; 6HR MAX TEMP:  42;

MEDICINE LODGE   N/A     31  25  78 NW3       30.29R
NEWTON         CLOUDY    34  23  64 N3        30.28R
PARSONS        PTCLDY    39  24  55 S5        30.29R
6HR MIN TEMP:  39; 6HR MAX TEMP:  48;

WICHITA INTL   CLOUDY    35  25  66 NW6       30.28R
6HR MIN TEMP:  34; 6HR MAX TEMP:  46;

WICHITA JABRA  CLOUDY    34  26  72 NW6       30.27S
6HR MIN TEMP:  33; 6HR MAX TEMP:  43;

WICHITA MCCONL PTCLDY    36  25  65 N5        30.28R
WINFIELD       CLOUDY    39  27  62 SW3       30.30S
6HR MIN TEMP:  39; 6HR MAX TEMP:  46; 6HR PCP: TRACE;

$$

KSZ007>012-019>026-033>040-048>060-102>105-060700-
NORTHEAST KANSAS

CITY           SKY/WX    TMP DP  RH WIND       PRES   REMARKS
CONCORDIA      PTCLDY    28  24  85 W7        30.28R
6HR MIN TEMP:  28; 6HR MAX TEMP:  36;

EMPORIA        PTCLDY    32  21  64 W7        30.25S
6HR MIN TEMP:  32; 6HR MAX TEMP:  45;

LAWRENCE       CLOUDY    32  26  78 N5        30.26F
6HR MIN TEMP:  29; 6HR MAX TEMP:  39;

MANHATTAN      CLEAR     29  23  78 CALM      30.28R
6HR MIN TEMP:  26; 6HR MAX TEMP:  40;

MARYSVILLE     PTCLDY    30  28  93 CALM      30.26S
OLATHE IND     CLOUDY    37  26  64 SE6       30.26F
6HR MIN TEMP:  32; 6HR MAX TEMP:  40;

OLATHE EXE     CLOUDY    35  25  66 SE5       30.26F
6HR MIN TEMP:  34; 6HR MAX TEMP:  40;

SALINA         PTCLDY    31  25  78 NW6       30.29R
6HR MIN TEMP:  31; 6HR MAX TEMP:  40;

TOPEKA BILLARD CLOUDY    32  25  75 CALM      30.26F
6HR MIN TEMP:  31; 6HR MAX TEMP:  40;

TOPEKA FORBES  CLOUDY    32  26  78 NW3       30.25F
6HR MIN TEMP:  31; 6HR MAX TEMP:  41;

$$



USA.gov is the U.S. government's official web portal to all federal, state and local government web resources and services.